When you browse on this site, cookies collect data to enhance your experience and personalize the content and advertising you see.
Visit our Privacy Policy to learn more. By continuing to use the site, you agree to this use of cookies and data.
  • In Sweden
  • List of Countries
  • For 7 days
  • Water Temperature
  • Weather Map
  • Weather Widgets
  • user-avatar
    Login

    Hourly Weather Polyanica

    Today, 29 May, Friday

    Time Temperature Precipitation Wind Pressure Humidity
    00:00 +8°C° 0.1 mm 2 mps 715 mmHg 97%
    01:00 +8°C° 0.1 mm 2 mps 715 mmHg 97%
    02:00 +8°C° 0.1 mm 3 mps 715 mmHg 98%
    03:00 +8°C° 0.2 mm 3 mps 715 mmHg 98%
    04:00 +8°C° 0.2 mm 3 mps 715 mmHg 98%
    05:00 +9°C° 0.2 mm 3 mps 715 mmHg 98%
    06:00 +9°C° 0.1 mm 3 mps 715 mmHg 97%
    07:00 +8°C° 0.1 mm 4 mps 715 mmHg 97%
    08:00 +8°C° 0.1 mm 4 mps 715 mmHg 96%
    09:00 +8°C° 0.2 mm 4 mps 715 mmHg 96%
    10:00 +8°C° 0.2 mm 4 mps 715 mmHg 96%
    11:00 +8°C° 0.2 mm 4 mps 715 mmHg 96%
    12:00 +10°C° 0.8 mm 4 mps 715 mmHg 93%
    13:00 +11°C° 0.8 mm 4 mps 714 mmHg 91%
    14:00 +12°C° 0.8 mm 4 mps 714 mmHg 88%
    15:00 +12°C° 1 mm 4 mps 714 mmHg 88%
    16:00 +12°C° 1 mm 4 mps 714 mmHg 89%
    17:00 +11°C° 1 mm 4 mps 714 mmHg 89%
    18:00 +10°C° 0.4 mm 4 mps 713 mmHg 91%
    19:00 +9°C° 0.4 mm 3 mps 713 mmHg 92%
    20:00 +8°C° 0.4 mm 2 mps 713 mmHg 94%
    21:00 +8°C° 0.1 mm 2 mps 713 mmHg 95%
    22:00 +7°C° 0.1 mm 2 mps 713 mmHg 96%
    23:00 +7°C° 0.1 mm 2 mps 713 mmHg 96%

    Tomorrow, 30 May, Saturday

    Time Temperature Precipitation Wind Pressure Humidity
    00:00 +7°C° 0.1 mm 2 mps 713 mmHg 97%
    01:00 +7°C° 0.1 mm 2 mps 712 mmHg 97%
    02:00 +7°C° 0.1 mm 2 mps 712 mmHg 97%
    03:00 +7°C° 0.1 mm 3 mps 712 mmHg 97%
    04:00 +7°C° 0.1 mm 3 mps 712 mmHg 97%
    05:00 +7°C° 0.1 mm 3 mps 711 mmHg 96%
    06:00 +7°C° 0.4 mm 3 mps 711 mmHg 96%
    07:00 +7°C° 0.4 mm 3 mps 711 mmHg 95%
    08:00 +7°C° 0.4 mm 3 mps 711 mmHg 95%
    09:00 +8°C° 0.8 mm 3 mps 711 mmHg 95%
    10:00 +7°C° 0.8 mm 4 mps 711 mmHg 95%
    11:00 +7°C° 0.8 mm 4 mps 711 mmHg 95%
    12:00 +6°C° 1 mm 4 mps 711 mmHg 95%
    13:00 +6°C° 1 mm 4 mps 710 mmHg 95%
    14:00 +5°C° 1 mm 4 mps 710 mmHg 95%
    15:00 +6°C° 0.2 mm 4 mps 710 mmHg 95%
    16:00 +6°C° 0.2 mm 4 mps 710 mmHg 94%
    17:00 +7°C° 0.2 mm 3 mps 710 mmHg 94%
    18:00 +7°C° 0.2 mm 3 mps 710 mmHg 94%
    19:00 +7°C° 0.2 mm 3 mps 710 mmHg 94%
    20:00 +7°C° 0.2 mm 3 mps 709 mmHg 95%
    21:00 +7°C° 0.2 mm 3 mps 709 mmHg 95%
    22:00 +7°C° 0.2 mm 3 mps 709 mmHg 94%
    23:00 +7°C° 0.2 mm 3 mps 709 mmHg 94%

    Day after tomorrow, 31 May, Sunday

    Time Temperature Precipitation Wind Pressure Humidity
    00:00 +8°C° 0.5 mm 3 mps 708 mmHg 94%
    01:00 +7°C° 0.5 mm 4 mps 708 mmHg 94%
    02:00 +7°C° 0.5 mm 4 mps 707 mmHg 94%
    03:00 +7°C° 0.5 mm 4 mps 707 mmHg 93%
    04:00 +7°C° 0.5 mm 5 mps 707 mmHg 93%
    05:00 +7°C° 0.5 mm 5 mps 706 mmHg 92%
    06:00 +7°C° 0.2 mm 5 mps 706 mmHg 91%
    07:00 +8°C° 0.2 mm 5 mps 707 mmHg 90%
    08:00 +8°C° 0.2 mm 5 mps 707 mmHg 89%
    09:00 +10°C° 0 mm 4 mps 707 mmHg 84%
    10:00 +11°C° 0 mm 4 mps 708 mmHg 79%
    11:00 +13°C° 0 mm 3 mps 708 mmHg 75%
    12:00 +13°C° 0.1 mm 3 mps 709 mmHg 73%
    13:00 +13°C° 0.1 mm 3 mps 709 mmHg 71%
    14:00 +14°C° 0.1 mm 3 mps 710 mmHg 69%
    15:00 +14°C° 0.1 mm 2 mps 710 mmHg 70%
    16:00 +14°C° 0.1 mm 2 mps 710 mmHg 72%
    17:00 +14°C° 0.1 mm 1 mps 710 mmHg 73%
    18:00 +13°C° 0 mm 1 mps 710 mmHg 78%
    19:00 +12°C° 0 mm 1 mps 711 mmHg 83%
    20:00 +11°C° 0 mm 1 mps 711 mmHg 88%
    21:00 +10°C° 0 mm 1 mps 711 mmHg 89%
    22:00 +10°C° 0 mm 1 mps 711 mmHg 90%
    23:00 +10°C° 0 mm 1 mps 712 mmHg 92%

    1 June, Monday

    Time Temperature Precipitation Wind Pressure Humidity
    00:00 +9°C° 0 mm 1 mps 712 mmHg 93%
    01:00 +9°C° 0 mm 1 mps 712 mmHg 94%
    02:00 +9°C° 0 mm 1 mps 711 mmHg 95%
    03:00 +9°C° 0.2 mm 1 mps 711 mmHg 95%
    04:00 +9°C° 0.2 mm 1 mps 711 mmHg 96%
    05:00 +9°C° 0.2 mm 1 mps 711 mmHg 96%
    06:00 +10°C° 0.6 mm 1 mps 712 mmHg 93%
    07:00 +11°C° 0.6 mm 1 mps 712 mmHg 91%
    08:00 +12°C° 0.6 mm 1 mps 712 mmHg 89%
    09:00 +13°C° 0.2 mm 2 mps 713 mmHg 89%
    10:00 +13°C° 0.2 mm 2 mps 713 mmHg 88%
    11:00 +13°C° 0.2 mm 2 mps 713 mmHg 87%
    12:00 +14°C° 0.2 mm 2 mps 713 mmHg 85%
    13:00 +15°C° 0.2 mm 2 mps 713 mmHg 82%
    14:00 +16°C° 0.2 mm 3 mps 713 mmHg 79%
    15:00 +16°C° 0.5 mm 3 mps 713 mmHg 81%
    16:00 +16°C° 0.5 mm 3 mps 713 mmHg 83%
    17:00 +16°C° 0.5 mm 3 mps 713 mmHg 84%
    18:00 +14°C° 0.8 mm 3 mps 713 mmHg 88%
    19:00 +13°C° 0.8 mm 3 mps 713 mmHg 92%
    20:00 +12°C° 0.8 mm 3 mps 713 mmHg 96%
    21:00 +12°C° 0.2 mm 3 mps 714 mmHg 96%
    22:00 +11°C° 0.2 mm 3 mps 714 mmHg 97%
    23:00 +11°C° 0.2 mm 3 mps 714 mmHg 97%

    2 June, Tuesday

    Time Temperature Precipitation Wind Pressure Humidity
    00:00 +10°C° 0.1 mm 3 mps 714 mmHg 97%
    01:00 +10°C° 0.1 mm 2 mps 714 mmHg 97%
    02:00 +10°C° 0.1 mm 2 mps 714 mmHg 98%
    03:00 +10°C° 0.1 mm 2 mps 714 mmHg 98%
    04:00 +9°C° 0.1 mm 2 mps 714 mmHg 98%
    05:00 +9°C° 0.1 mm 2 mps 714 mmHg 98%
    06:00 +9°C° 0 mm 2 mps 714 mmHg 96%
    07:00 +9°C° 0 mm 2 mps 714 mmHg 94%
    08:00 +10°C° 0 mm 3 mps 715 mmHg 92%
    09:00 +11°C° 0.1 mm 3 mps 715 mmHg 86%
    10:00 +12°C° 0.1 mm 4 mps 715 mmHg 79%
    11:00 +13°C° 0.1 mm 4 mps 715 mmHg 72%
    12:00 +13°C° 0.2 mm 4 mps 715 mmHg 70%
    13:00 +14°C° 0.2 mm 5 mps 714 mmHg 68%
    14:00 +14°C° 0.2 mm 5 mps 714 mmHg 66%
    15:00 +14°C° 0.1 mm 5 mps 714 mmHg 67%
    16:00 +14°C° 0.1 mm 5 mps 714 mmHg 68%
    17:00 +14°C° 0.1 mm 4 mps 713 mmHg 68%
    18:00 +12°C° 0.1 mm 4 mps 713 mmHg 75%
    19:00 +11°C° 0.1 mm 3 mps 713 mmHg 82%
    20:00 +9°C° 0.1 mm 2 mps 713 mmHg 89%
    21:00 +8°C° 0 mm 2 mps 713 mmHg 92%
    22:00 +7°C° 0 mm 2 mps 713 mmHg 94%
    23:00 +7°C° 0 mm 1 mps 714 mmHg 96%

    3 June, Wednesday

    Time Temperature Precipitation Wind Pressure Humidity
    00:00 +7°C° 0 mm 1 mps 713 mmHg 96%
    01:00 +6°C° 0 mm 1 mps 713 mmHg 97%
    02:00 +6°C° 0 mm 1 mps 713 mmHg 97%
    03:00 +6°C° 0 mm 1 mps 713 mmHg 97%
    04:00 +6°C° 0 mm 1 mps 713 mmHg 97%
    05:00 +6°C° 0 mm 1 mps 713 mmHg 97%
    06:00 +6°C° 0 mm 2 mps 713 mmHg 93%
    07:00 +8°C° 0 mm 2 mps 714 mmHg 88%
    08:00 +9°C° 0 mm 3 mps 714 mmHg 83%
    09:00 +10°C° 0 mm 3 mps 714 mmHg 75%
    10:00 +12°C° 0 mm 4 mps 714 mmHg 66%
    11:00 +13°C° 0 mm 5 mps 714 mmHg 58%
    12:00 +14°C° 0.1 mm 5 mps 714 mmHg 57%
    13:00 +14°C° 0.1 mm 5 mps 714 mmHg 56%
    14:00 +15°C° 0.1 mm 5 mps 714 mmHg 55%
    15:00 +14°C° 0 mm 5 mps 714 mmHg 57%
    16:00 +14°C° 0 mm 4 mps 714 mmHg 59%
    17:00 +14°C° 0 mm 4 mps 713 mmHg 61%
    18:00 +12°C° 0 mm 3 mps 713 mmHg 69%
    19:00 +11°C° 0 mm 3 mps 713 mmHg 78%
    20:00 +9°C° 0 mm 2 mps 713 mmHg 86%
    21:00 +8°C° 0 mm 2 mps 713 mmHg 89%
    22:00 +8°C° 0 mm 1 mps 714 mmHg 92%
    23:00 +7°C° 0 mm 1 mps 714 mmHg 95%
    Show more